Volver al catálogo

SIRIUS-SINP-3U

ActivoCienciaSSO
NORAD 57185·PAYLOAD·🇷🇺 Russia
Este nombre de satélite aún no ha sido confirmado por fuentes oficiales.

Lanzado Jun 27, 2023 desde Vostochny Cosmodrome

Loading…

Próximos Pases (próximas 24 horas)

TLE

ActualizadoSource: Space-Track

Época: Sep 14, 2026, 21:43 UTC

1 57185U 23091V   26257.90507511  .00023349  00000-0  53469-3 0  9992
2 57185  97.4969 331.0222 0007310 110.1098 250.0937 15.42761598178590

Sigue SIRIUS-SINP-3U en tiempo real con AllMySat

Download on the App Store